📊 Raw Sensor Data
Showing records 39976 to 40000 of 84,955 total
| ID | Distance (ft) | Battery V | Battery A | Int Temp (°F) | Int Humid (%) | Ext Temp (°F) | Solar V | RSSI | SNR | Time Stamp |
|---|---|---|---|---|---|---|---|---|---|---|
| 44992 | 15.4 | 4.11 | 0 | 102 | 51 | 95 | 5.10 | -73 | 8 | 06/30/2025 06:45 PM |
| 44991 | 15.4 | 4.10 | 0 | 102 | 51 | 95 | 5.10 | -73 | 7 | 06/30/2025 06:30 PM |
| 44990 | 15.4 | 3.94 | 0 | 104 | 51 | 95 | 5.10 | -76 | 8 | 06/30/2025 06:15 PM |
| 44989 | 15.4 | 3.92 | 0 | 106 | 50 | 97 | 5.10 | -73 | 8 | 06/30/2025 06:00 PM |
| 44988 | 15.4 | 3.92 | 0 | 107 | 49 | 97 | 5.10 | -72 | 8 | 06/30/2025 05:45 PM |
| 44987 | 15.5 | 3.92 | 0 | 107 | 48 | 99 | 5.10 | -74 | 8 | 06/30/2025 05:30 PM |
| 44986 | 15.4 | 4.11 | 0 | 107 | 48 | 99 | 5.10 | -73 | 8 | 06/30/2025 05:15 PM |
| 44985 | 15.4 | 3.92 | 0 | 107 | 47 | 99 | 5.10 | -73 | 7 | 06/30/2025 05:00 PM |
| 44984 | 15.5 | 3.92 | 0 | 108 | 46 | 100 | 5.10 | -74 | 7 | 06/30/2025 04:45 PM |
| 44983 | 15.5 | 3.92 | 0 | 108 | 44 | 99 | 5.10 | -72 | 7 | 06/30/2025 04:30 PM |
| 44982 | 15.4 | 3.92 | 0 | 106 | 44 | 99 | 5.10 | -72 | 8 | 06/30/2025 04:15 PM |
| 44981 | 15.4 | 3.92 | 0 | 105 | 44 | 97 | 5.10 | -73 | 7 | 06/30/2025 04:00 PM |
| 44980 | 15.4 | 3.99 | 0 | 104 | 44 | 95 | 5.10 | -75 | 8 | 06/30/2025 03:45 PM |
| 44979 | 15.4 | 3.92 | 0 | 104 | 43 | 96 | 5.10 | -73 | 8 | 06/30/2025 03:30 PM |
| 44978 | 15.4 | 4.07 | 0 | 102 | 44 | 93 | 5.10 | -74 | 8 | 06/30/2025 03:15 PM |
| 44977 | 15.4 | 3.92 | 0 | 101 | 43 | 91 | 5.10 | -73 | 8 | 06/30/2025 03:00 PM |
| 44976 | 15.4 | 3.92 | 0 | 101 | 42 | 91 | 5.10 | -72 | 8 | 06/30/2025 02:45 PM |
| 44975 | 15.4 | 3.95 | 0 | 100 | 42 | 94 | 5.10 | -73 | 8 | 06/30/2025 02:30 PM |
| 44974 | 15.4 | 3.92 | 0 | 99 | 43 | 92 | 5.10 | -74 | 8 | 06/30/2025 02:15 PM |
| 44973 | 15.4 | 3.92 | 0 | 98 | 42 | 91 | 5.10 | -72 | 8 | 06/30/2025 02:00 PM |
| 44972 | 15.4 | 3.99 | 0 | 97 | 42 | 90 | 5.20 | -72 | 7 | 06/30/2025 01:45 PM |
| 44971 | 15.4 | 3.92 | 0 | 96 | 43 | 88 | 5.10 | -71 | 8 | 06/30/2025 01:30 PM |
| 44970 | 15.4 | 3.92 | 0 | 95 | 43 | 88 | 5.10 | -72 | 7 | 06/30/2025 01:15 PM |
| 44969 | 15.4 | 3.95 | 0 | 94 | 43 | 89 | 5.10 | -69 | 8 | 06/30/2025 01:00 PM |
| 44968 | 15.4 | 4.03 | 0 | 91 | 43 | 89 | 5.10 | -68 | 7 | 06/30/2025 12:30 PM |